| Date | Temp | Humidity | Rainfall | Dew Point | Wind Direction | Wind Speed | Wind Pressure | Condition | Visibility |
|---|---|---|---|---|---|---|---|---|---|
| 2025-04-06 16:00:33 | 29 | 82 | 0.00 | 26 | 350 | 13.3 | 1008 | Partly Cloudy (Day) | 15 km |
| 2025-04-06 15:00:38 | 29 | 80 | 0.00 | 25 | 300 | 17.1 | 1008 | Partly Cloudy (Day) | 15 km |
| 2025-04-06 14:02:29 | 30 | 72 | 0.00 | 25 | 300 | 19. | 1009 | Partly Cloudy (Day) | 15 km |
| 2025-04-06 13:01:33 | 31 | 73 | 0.0 | 25 | 310 | 20.9 | 1010 | Distant showers | 15 KM |
| 2025-04-06 12:00:53 | 30 | 73 | 0.0 | 25 | 320 | 17.1 | 1011 | Partly Cloudy (Day) | 20 KM |
| 2025-04-06 11:00:09 | 30 | 74 | 0.0 | 25 | 330 | 11.4 | 1012 | Partly Cloudy (Day) | 20 KM |
| 2025-04-06 10:00:39 | 29 | 77 | 25 | 230 | 15.2 | 1012 | Partly Cloudy (Day) | 20 KM | |
| 2025-04-06 09:00:12 | 27 | 89 | 25 | 210 | 9.5 | 1012 | Distant showers | 10 KM | |
| 2025-04-06 07:58:31 | 27 | 93 | 25 | 190 | 7.6 | 1011 | Partly Cloudy (Day) | 15KM | |
| 2025-04-06 06:58:44 | 26 | 95 | 25 | 220 | 9.5 | 1010 | Showers | 10KM | |
| 2025-04-06 06:01:43 | 26 | 96 | 25 | 190 | 7.6 | 1009 | Showers | 10KM | |
| 2025-04-06 04:58:00 | 26 | 94 | 25 | 190 | 5.7 | 1009 | Partly Cloudy (Night) | 10KM | |
| 2025-04-06 04:08:20 | 27 | 94 | 26 | 190 | 3.8 | 1009 | Partly Cloudy (Night) | 10KM | |
| 2025-04-06 03:01:26 | 27 | 90 | 26 | 070 | 3.8 | 1008 | Partly Cloudy (Night) | 10KM | |
| 2025-04-06 02:00:19 | 28 | 90 | 26 | 020 | 5.7 | 1009 | Partly Cloudy (Night) | 10 KM | |
| 2025-04-06 00:59:08 | 28 | 90 | 26 | 020 | 3.8 | 1010 | Partly Cloudy (Night) | 10 KM | |
| 2025-04-05 23:59:17 | 27 | 91 | 26 | 100 | 1.9 | 1011 | Partly Cloudy (Night) | 10 KM | |
| 2025-04-05 23:00:29 | 28 | 85 | 26 | 010 | 1.9 | 1011 | Partly Cloudy (Night) | 10 KM | |
| 2025-04-05 21:59:40 | 28 | 87 | 26 | 050 | 5.7 | 1010 | Partly Cloudy (Night) | 10 KM | |
| 2025-04-05 20:58:15 | 28 | 86 | 0.0 | 25 | 020 | 3.8 | 1010 | Lightning | 10 KM |
| 2025-04-05 20:00:03 | 28 | 84 | 0.0 | 25 | 050 | 7.6 | 1009 | Lightning | 10 KM |
| 2025-04-05 19:01:17 | 28 | 83 | 0.0 | 25 | 040 | 7.6 | 1008 | Lightning | 10 KM |
| 2025-04-05 17:58:51 | 29 | 83 | 0.0 | 26 | 360 | 7.6 | 1008 | Partly Cloudy (Day) | 10 KM |
| 2025-04-05 17:01:44 | 29 | 81 | 0.0 | 26 | 350 | 15.2 | 1007 | Partly Cloudy (Day) | 15 KM |
| 2025-04-05 15:59:53 | 30 | 80 | 0.0 | 26 | 350 | 17.1 | 1007 | Partly Cloudy (Day) | 20 KM |